AFR23FF LFPG-LIEO

Flight info

Callsign AFR23FF
Flight time 2h 8m
Altitude 37000
Route LATRA DCT LAMUT DCT UTUVA DCT TITVA DCT NOQAS DCT OTROT DCT RETNO DCT KOLON DCT LOKDU M623 PELOS DCT IPROM DCT MINKA
Aircraft A320/M-SDE3FGHIRWY/LB1

Departure

Time 2026-05-06 15:27
Airport Charles de Gaulle International Airport (LFPG)

Arrival

Time 2026-05-06 17:36
Airport Olbia Costa Smeralda Airport (LIEO)
Time Latitude Longitude Altitude Speed Heading
2026-05-06 14:31 49.00630 2.57590 0 ft 0 kts 262°
2026-05-06 15:10 49.00630 2.57596 175 ft 3 kts 262°
2026-05-06 15:10 49.00633 2.57636 236 ft 4 kts 270°
2026-05-06 15:10 49.00629 2.57671 356 ft 4 kts 333°
2026-05-06 15:11 49.00633 2.57674 356 ft 4 kts 357°
2026-05-06 15:11 49.00660 2.57672 355 ft 4 kts 356°
2026-05-06 15:11 49.00687 2.57669 353 ft 4 kts 354°
2026-05-06 15:11 49.00698 2.57667 353 ft 0 kts 354°
2026-05-06 15:15 49.00712 2.57665 359 ft 4 kts 356°
2026-05-06 15:15 49.00736 2.57665 361 ft 2 kts 357°
2026-05-06 15:15 49.00754 2.57665 359 ft 4 kts
2026-05-06 15:16 49.00779 2.57687 360 ft 5 kts 40°
2026-05-06 15:16 49.00809 2.57723 358 ft 6 kts 21°
2026-05-06 15:16 49.00846 2.57729 357 ft 6 kts 359°
2026-05-06 15:16 49.00888 2.57775 357 ft 10 kts 66°
2026-05-06 15:17 49.00898 2.57906 358 ft 13 kts 85°
2026-05-06 15:17 49.00904 2.58033 355 ft 11 kts 86°
2026-05-06 15:17 49.00910 2.58140 364 ft 9 kts 85°
2026-05-06 15:17 49.00916 2.58255 358 ft 13 kts 85°
2026-05-06 15:18 49.00924 2.58405 362 ft 16 kts 85°
2026-05-06 15:18 49.00934 2.58598 355 ft 20 kts 85°
2026-05-06 15:18 49.00946 2.58817 355 ft 21 kts 84°
2026-05-06 15:18 49.00971 2.59022 361 ft 19 kts 75°
2026-05-06 15:19 49.00990 2.59203 355 ft 16 kts 85°
2026-05-06 15:19 49.00999 2.59376 358 ft 16 kts 85°
2026-05-06 15:19 49.01001 2.59493 355 ft 9 kts 108°
2026-05-06 15:19 49.00954 2.59533 356 ft 9 kts 174°
2026-05-06 15:20 49.00869 2.59543 354 ft 15 kts 175°
2026-05-06 15:20 49.00770 2.59555 357 ft 14 kts 175°
2026-05-06 15:20 49.00676 2.59566 353 ft 15 kts 175°
2026-05-06 15:20 49.00559 2.59582 353 ft 18 kts 175°
2026-05-06 15:21 49.00429 2.59597 360 ft 19 kts 175°
2026-05-06 15:21 49.00297 2.59615 353 ft 19 kts 174°
2026-05-06 15:21 49.00191 2.59626 354 ft 13 kts 174°
2026-05-06 15:21 49.00110 2.59636 357 ft 11 kts 176°
2026-05-06 15:22 49.00042 2.59644 354 ft 9 kts 175°
2026-05-06 15:22 48.99998 2.59706 355 ft 11 kts 98°
2026-05-06 15:22 49.00003 2.59831 359 ft 12 kts 85°
2026-05-06 15:22 49.00010 2.59952 354 ft 12 kts 85°
2026-05-06 15:23 49.00018 2.60106 359 ft 15 kts 86°
2026-05-06 15:23 49.00011 2.60210 359 ft 8 kts 133°
2026-05-06 15:23 48.99964 2.60242 358 ft 7 kts 170°
2026-05-06 15:23 48.99938 2.60240 354 ft 0 kts 192°
2026-05-06 15:25 48.99914 2.60231 361 ft 7 kts 197°
2026-05-06 15:25 48.99858 2.60166 363 ft 12 kts 226°
2026-05-06 15:26 48.99828 2.60094 358 ft 6 kts 258°
2026-05-06 15:26 48.99826 2.60069 358 ft 0 kts 263°
2026-05-06 15:26 48.99825 2.60051 354 ft 15 kts 263°
2026-05-06 15:26 48.99796 2.59489 356 ft 87 kts 265°
2026-05-06 15:27 48.99731 2.58274 355 ft 141 kts 265°
2026-05-06 15:27 48.99637 2.56576 490 ft 170 kts 266°
2026-05-06 15:27 48.99537 2.54818 1231 ft 165 kts 267°
2026-05-06 15:27 48.99440 2.53089 1957 ft 163 kts 267°
2026-05-06 15:28 48.99343 2.51306 2451 ft 178 kts 267°
2026-05-06 15:28 48.99239 2.49302 2759 ft 201 kts 268°
2026-05-06 15:28 48.99123 2.47045 3102 ft 226 kts 269°
2026-05-06 15:28 48.98994 2.44546 3629 ft 243 kts 267°
2026-05-06 15:29 48.98853 2.41951 4467 ft 248 kts 266°
2026-05-06 15:29 48.98706 2.39321 5301 ft 251 kts 265°
2026-05-06 15:29 48.98556 2.36652 6143 ft 255 kts 264°
2026-05-06 15:29 48.98401 2.33933 6967 ft 260 kts 263°
2026-05-06 15:30 48.98246 2.31169 7732 ft 265 kts 263°
2026-05-06 15:30 48.98085 2.28339 8448 ft 272 kts 263°
2026-05-06 15:30 48.97919 2.25423 9149 ft 278 kts 263°
2026-05-06 15:30 48.97751 2.22476 9927 ft 281 kts 263°
2026-05-06 15:31 48.97581 2.19439 10396 ft 298 kts 264°
2026-05-06 15:31 48.97400 2.16194 10782 ft 314 kts 264°
2026-05-06 15:31 48.96967 2.12917 11417 ft 321 kts 248°
2026-05-06 15:32 48.93870 2.08096 12763 ft 333 kts 203°
2026-05-06 15:32 48.91590 2.07421 13430 ft 338 kts 179°
2026-05-06 15:32 48.89239 2.07770 14104 ft 341 kts 174°
2026-05-06 15:32 48.86869 2.08201 14774 ft 344 kts 174°
2026-05-06 15:33 48.84487 2.08638 15400 ft 347 kts 174°
2026-05-06 15:33 48.82081 2.09074 16028 ft 349 kts 174°
2026-05-06 15:33 48.79660 2.09504 16622 ft 352 kts 174°
2026-05-06 15:33 48.77212 2.09931 17213 ft 355 kts 174°
2026-05-06 15:34 48.74745 2.10357 17785 ft 358 kts 174°
2026-05-06 15:34 48.72224 2.10789 18347 ft 362 kts 174°
2026-05-06 15:34 48.69716 2.11230 18884 ft 364 kts 171°
2026-05-06 15:34 48.67238 2.12137 19405 ft 368 kts 161°
2026-05-06 15:35 48.64891 2.13713 19921 ft 371 kts 153°
2026-05-06 15:35 48.62579 2.15476 20427 ft 374 kts 153°
2026-05-06 15:35 48.60242 2.17242 20941 ft 377 kts 154°
2026-05-06 15:35 48.57886 2.19011 21424 ft 379 kts 154°
2026-05-06 15:36 48.55517 2.20787 21923 ft 381 kts 154°
2026-05-06 15:36 48.53133 2.22578 22370 ft 384 kts 154°
2026-05-06 15:36 48.50736 2.24382 22811 ft 387 kts 153°
2026-05-06 15:36 48.48322 2.26195 23247 ft 389 kts 154°
2026-05-06 15:37 48.45890 2.28018 23679 ft 392 kts 154°
2026-05-06 15:37 48.43441 2.29845 24097 ft 394 kts 154°
2026-05-06 15:37 48.40976 2.31680 24498 ft 396 kts 154°
2026-05-06 15:37 48.38498 2.33527 24912 ft 398 kts 153°
2026-05-06 15:38 48.36012 2.35388 25328 ft 400 kts 153°
2026-05-06 15:38 48.33519 2.37255 25740 ft 401 kts 153°
2026-05-06 15:38 48.31020 2.39119 26142 ft 402 kts 153°
2026-05-06 15:38 48.28492 2.40937 26502 ft 404 kts 157°
2026-05-06 15:39 48.25839 2.42391 26868 ft 407 kts 159°
2026-05-06 15:39 48.23169 2.43808 27201 ft 409 kts 159°
2026-05-06 15:39 48.20478 2.45232 27524 ft 411 kts 159°
2026-05-06 15:39 48.17775 2.46660 27839 ft 414 kts 159°
2026-05-06 15:40 48.15052 2.48102 28130 ft 416 kts 158°
2026-05-06 15:40 48.12314 2.49551 28436 ft 419 kts 158°
2026-05-06 15:40 48.09556 2.51013 28709 ft 422 kts 158°
2026-05-06 15:40 48.06776 2.52479 28933 ft 426 kts 158°
2026-05-06 15:41 48.03945 2.53918 29062 ft 433 kts 159°
2026-05-06 15:41 48.01065 2.55338 29231 ft 438 kts 159°
2026-05-06 15:41 47.98118 2.56763 29457 ft 441 kts 159°
2026-05-06 15:41 47.95182 2.58173 29692 ft 444 kts 159°
2026-05-06 15:42 47.92232 2.59600 29907 ft 447 kts 159°
2026-05-06 15:42 47.89268 2.61046 30118 ft 450 kts 159°
2026-05-06 15:42 47.86284 2.62511 30340 ft 452 kts 159°
2026-05-06 15:42 47.83293 2.63981 30610 ft 453 kts 159°
2026-05-06 15:43 47.80300 2.65450 30966 ft 452 kts 159°
2026-05-06 15:43 47.77322 2.66907 31397 ft 449 kts 159°
2026-05-06 15:43 47.74368 2.68349 31819 ft 445 kts 160°
2026-05-06 15:43 47.71428 2.69787 32214 ft 443 kts 160°
2026-05-06 15:44 47.68510 2.71211 32555 ft 442 kts 161°
2026-05-06 15:44 47.65592 2.72627 32874 ft 441 kts 161°
2026-05-06 15:44 47.62673 2.74039 33185 ft 440 kts 161°
2026-05-06 15:44 47.59760 2.75448 33440 ft 441 kts 161°
2026-05-06 15:45 47.56841 2.76862 33690 ft 441 kts 162°
2026-05-06 15:45 47.53924 2.78275 33925 ft 442 kts 162°
2026-05-06 15:45 47.50996 2.79695 34176 ft 443 kts 162°
2026-05-06 15:45 47.48066 2.81115 34394 ft 444 kts 162°
2026-05-06 15:46 47.45131 2.82529 34632 ft 444 kts 162°
2026-05-06 15:46 47.42194 2.83937 34932 ft 442 kts 162°
2026-05-06 15:46 47.39273 2.85341 35200 ft 441 kts 162°
2026-05-06 15:46 47.36355 2.86748 35458 ft 440 kts 162°
2026-05-06 15:47 47.33446 2.88152 35716 ft 439 kts 162°
2026-05-06 15:47 47.30543 2.89551 35945 ft 439 kts 162°
2026-05-06 15:47 47.27643 2.90942 36160 ft 438 kts 162°
2026-05-06 15:47 47.24743 2.92325 36366 ft 438 kts 162°
2026-05-06 15:48 47.21847 2.93705 36566 ft 437 kts 162°
2026-05-06 15:48 47.18956 2.95084 36750 ft 437 kts 162°
2026-05-06 15:48 47.16057 2.96466 36897 ft 438 kts 162°
2026-05-06 15:48 47.13170 2.97840 36949 ft 437 kts 162°
2026-05-06 15:49 47.07370 3.00452 36948 ft 435 kts 164°
2026-05-06 15:49 47.01533 3.02797 36948 ft 435 kts 165°
2026-05-06 15:50 46.95692 3.05117 36930 ft 434 kts 166°
2026-05-06 15:50 46.89927 3.07462 36910 ft 428 kts 166°
2026-05-06 15:51 46.84150 3.09835 36928 ft 428 kts 166°
2026-05-06 15:51 46.78409 3.12192 36925 ft 429 kts 166°
2026-05-06 15:52 46.72665 3.14538 36929 ft 429 kts 166°
2026-05-06 15:52 46.66926 3.16872 36929 ft 429 kts 166°
2026-05-06 15:53 46.61178 3.19206 36928 ft 429 kts 166°
2026-05-06 15:53 46.55431 3.21529 36929 ft 429 kts 166°
2026-05-06 15:54 46.49673 3.23849 36914 ft 429 kts 166°
2026-05-06 15:54 46.43917 3.26165 36929 ft 429 kts 166°
2026-05-06 15:55 46.38167 3.28484 36927 ft 429 kts 166°
2026-05-06 15:55 46.32414 3.30792 36929 ft 429 kts 166°
2026-05-06 15:56 46.26659 3.33090 36929 ft 429 kts 166°
2026-05-06 15:56 46.20903 3.35387 36928 ft 429 kts 166°
2026-05-06 15:57 46.15151 3.37684 36928 ft 429 kts 167°
2026-05-06 15:57 46.09391 3.39984 36928 ft 429 kts 166°
2026-05-06 15:58 46.03637 3.42279 36928 ft 429 kts 167°
2026-05-06 15:58 45.97873 3.44552 36929 ft 429 kts 167°
2026-05-06 15:59 45.93046 3.46449 36930 ft 429 kts 167°
2026-05-06 15:59 45.87314 3.48849 36929 ft 431 kts 160°
2026-05-06 16:00 45.84616 3.50739 37883 ft 434 kts 150°
2026-05-06 16:00 45.82082 3.53118 37889 ft 439 kts 149°
2026-05-06 16:00 45.79521 3.55542 37775 ft 443 kts 149°
2026-05-06 16:00 45.76935 3.57971 37669 ft 444 kts 149°
2026-05-06 16:01 45.74350 3.60398 37558 ft 445 kts 149°
2026-05-06 16:01 45.71762 3.62830 37454 ft 447 kts 149°
2026-05-06 16:01 45.69148 3.65282 37344 ft 454 kts 150°
2026-05-06 16:01 45.66486 3.67780 37176 ft 459 kts 149°
2026-05-06 16:02 45.63802 3.70296 36961 ft 462 kts 150°
2026-05-06 16:02 45.61120 3.72810 36873 ft 461 kts 150°
2026-05-06 16:02 45.55734 3.77846 36909 ft 463 kts 150°
2026-05-06 16:03 45.50342 3.82868 36899 ft 463 kts 150°
2026-05-06 16:03 45.44941 3.87883 36901 ft 463 kts 150°
2026-05-06 16:04 45.39537 3.92893 36899 ft 463 kts 149°
2026-05-06 16:04 45.34729 3.99061 36899 ft 472 kts 131°
2026-05-06 16:05 45.30865 4.06621 36897 ft 473 kts 129°
2026-05-06 16:05 45.26993 4.14188 36894 ft 474 kts 129°
2026-05-06 16:06 45.23079 4.21799 36897 ft 474 kts 129°
2026-05-06 16:06 45.19213 4.29301 36903 ft 474 kts 130°
2026-05-06 16:07 45.15297 4.36897 36909 ft 475 kts 130°
2026-05-06 16:07 45.11397 4.44441 36913 ft 474 kts 131°
2026-05-06 16:08 45.07261 4.51673 36916 ft 472 kts 135°
2026-05-06 16:08 45.02895 4.58577 36915 ft 471 kts 136°
2026-05-06 16:09 44.98515 4.65474 36919 ft 471 kts 136°
2026-05-06 16:09 44.94204 4.72448 36924 ft 471 kts 135°
2026-05-06 16:10 44.89931 4.79461 36934 ft 471 kts 135°
2026-05-06 16:10 44.85643 4.86442 36932 ft 471 kts 136°
2026-05-06 16:11 44.81330 4.93377 36932 ft 470 kts 136°
2026-05-06 16:11 44.77023 5.00299 36927 ft 470 kts 136°
2026-05-06 16:12 44.72715 5.07217 36926 ft 470 kts 136°
2026-05-06 16:12 44.68408 5.14114 36927 ft 469 kts 136°
2026-05-06 16:13 44.64093 5.21002 36929 ft 469 kts 136°
2026-05-06 16:13 44.59784 5.27880 36917 ft 468 kts 137°
2026-05-06 16:14 44.55442 5.34782 36917 ft 469 kts 137°
2026-05-06 16:14 44.51121 5.41639 36918 ft 469 kts 137°
2026-05-06 16:15 44.46801 5.48467 36926 ft 469 kts 137°
2026-05-06 16:15 44.42474 5.55281 36912 ft 468 kts 137°
2026-05-06 16:16 44.38177 5.62126 36909 ft 471 kts 134°
2026-05-06 16:16 44.34437 5.69717 36905 ft 474 kts 129°
2026-05-06 16:17 44.30741 5.77348 36903 ft 474 kts 130°
2026-05-06 16:17 44.27021 5.84962 36898 ft 474 kts 130°
2026-05-06 16:18 44.23300 5.92561 36896 ft 474 kts 130°
2026-05-06 16:18 44.19576 6.00168 36893 ft 475 kts 130°
2026-05-06 16:19 44.15853 6.07764 36892 ft 475 kts 130°
2026-05-06 16:19 44.12126 6.15349 36890 ft 475 kts 130°
2026-05-06 16:20 44.08392 6.22937 36893 ft 475 kts 131°
2026-05-06 16:20 44.04648 6.30520 36893 ft 475 kts 131°
2026-05-06 16:21 44.00899 6.38077 36886 ft 475 kts 131°
2026-05-06 16:21 43.97144 6.45626 36891 ft 475 kts 131°
2026-05-06 16:22 43.93376 6.53175 36873 ft 475 kts 131°
2026-05-06 16:22 43.89604 6.60712 36854 ft 476 kts 131°
2026-05-06 16:23 43.85806 6.68310 36848 ft 476 kts 131°
2026-05-06 16:23 43.82024 6.75848 36838 ft 477 kts 132°
2026-05-06 16:24 43.78229 6.83369 36833 ft 477 kts 132°
2026-05-06 16:24 43.74385 6.90809 36828 ft 472 kts 137°
2026-05-06 16:25 43.69593 6.96683 36828 ft 453 kts 155°
2026-05-06 16:25 43.64057 7.00535 36824 ft 444 kts 163°
2026-05-06 16:26 43.58436 7.04102 36823 ft 445 kts 162°
2026-05-06 16:26 43.52810 7.07671 36821 ft 445 kts 162°
2026-05-06 16:27 43.47191 7.11241 36837 ft 445 kts 163°
2026-05-06 16:27 43.41567 7.14805 36834 ft 445 kts 163°
2026-05-06 16:28 43.35940 7.18364 36843 ft 445 kts 163°
2026-05-06 16:28 43.30317 7.21916 36847 ft 445 kts 163°
2026-05-06 16:29 43.24685 7.25458 36862 ft 445 kts 163°
2026-05-06 16:29 43.19059 7.28985 36870 ft 445 kts 163°
2026-05-06 16:30 43.15292 7.31342 36879 ft 445 kts 163°
2026-05-06 16:30 43.07803 7.36029 36889 ft 445 kts 163°
2026-05-06 16:31 43.03093 7.38972 36898 ft 445 kts 163°
2026-05-06 16:31 42.97465 7.42483 36904 ft 444 kts 163°
2026-05-06 16:32 42.91838 7.45984 36908 ft 444 kts 163°
2026-05-06 16:32 42.86211 7.49477 36911 ft 444 kts 163°
2026-05-06 16:33 42.80581 7.52959 36918 ft 444 kts 163°
2026-05-06 16:34 42.72143 7.58164 36916 ft 444 kts 163°
2026-05-06 16:34 42.66525 7.61638 36926 ft 443 kts 163°
2026-05-06 16:35 42.60906 7.65093 36937 ft 443 kts 163°
2026-05-06 16:35 42.55293 7.68537 36932 ft 443 kts 163°
2026-05-06 16:36 42.49675 7.71970 36935 ft 443 kts 164°
2026-05-06 16:36 42.44061 7.75398 36935 ft 443 kts 164°
2026-05-06 16:37 42.38448 7.78829 36934 ft 442 kts 163°
2026-05-06 16:37 42.32833 7.82254 36936 ft 442 kts 164°
2026-05-06 16:38 42.27220 7.85665 36946 ft 442 kts 164°
2026-05-06 16:38 42.21614 7.89073 36943 ft 442 kts 164°
2026-05-06 16:39 42.15999 7.92469 36941 ft 442 kts 164°
2026-05-06 16:39 42.10387 7.95850 36943 ft 442 kts 164°
2026-05-06 16:40 42.04742 7.99255 36943 ft 442 kts 164°
2026-05-06 16:40 41.99107 8.02519 36940 ft 436 kts 170°
2026-05-06 16:41 41.93283 8.04024 36937 ft 423 kts 181°
2026-05-06 16:41 41.87430 8.04920 36929 ft 424 kts 181°
2026-05-06 16:42 41.81574 8.05830 36928 ft 424 kts 181°
2026-05-06 16:42 41.75703 8.06745 36932 ft 425 kts 181°
2026-05-06 16:43 41.69829 8.07655 36936 ft 425 kts 181°
2026-05-06 16:43 41.63950 8.08559 36932 ft 425 kts 181°
2026-05-06 16:44 41.58069 8.09469 36926 ft 426 kts 180°
2026-05-06 16:44 41.52175 8.10381 36927 ft 426 kts 180°
2026-05-06 16:45 41.46280 8.11291 36929 ft 427 kts 181°
2026-05-06 16:45 41.40375 8.12193 36934 ft 427 kts 180°
2026-05-06 16:46 41.34468 8.13134 36938 ft 428 kts 180°
2026-05-06 16:46 41.28561 8.14118 36932 ft 428 kts 180°
2026-05-06 16:47 41.22644 8.15098 36936 ft 428 kts 180°
2026-05-06 16:47 41.16758 8.16630 36936 ft 440 kts 167°
2026-05-06 16:48 41.11319 8.20661 36933 ft 460 kts 148°
2026-05-06 16:48 41.08958 8.23579 36809 ft 465 kts 139°
2026-05-06 16:48 41.06991 8.26942 36307 ft 461 kts 129°
2026-05-06 16:48 41.05405 8.30611 35578 ft 454 kts 126°
2026-05-06 16:49 41.03888 8.34248 34870 ft 447 kts 126°
2026-05-06 16:49 41.02387 8.37818 34206 ft 440 kts 127°
2026-05-06 16:49 41.00905 8.41324 33490 ft 433 kts 127°
2026-05-06 16:49 40.99436 8.44775 32743 ft 427 kts 127°
2026-05-06 16:50 40.97982 8.48171 32013 ft 421 kts 127°
2026-05-06 16:50 40.96545 8.51518 31298 ft 416 kts 127°
2026-05-06 16:50 40.95107 8.54869 30612 ft 411 kts 127°
2026-05-06 16:50 40.93723 8.58094 29985 ft 405 kts 127°
2026-05-06 16:51 40.92325 8.61355 29267 ft 399 kts 127°
2026-05-06 16:51 40.90970 8.64518 28616 ft 392 kts 127°
2026-05-06 16:51 40.89633 8.67637 27960 ft 386 kts 126°
2026-05-06 16:51 40.88317 8.70701 27296 ft 382 kts 126°
2026-05-06 16:52 40.87012 8.73734 26665 ft 377 kts 126°
2026-05-06 16:52 40.85728 8.76723 26037 ft 372 kts 126°
2026-05-06 16:52 40.84562 8.79769 25421 ft 373 kts 114°
2026-05-06 16:52 40.83998 8.83108 24835 ft 375 kts 96°
2026-05-06 16:53 40.84152 8.86526 24251 ft 374 kts 78°
2026-05-06 16:53 40.85007 8.89739 23687 ft 370 kts 61°
2026-05-06 16:53 40.86459 8.92495 23040 ft 363 kts 47°
2026-05-06 16:53 40.88113 8.95002 22353 ft 361 kts 47°
2026-05-06 16:54 40.89669 8.97596 21705 ft 358 kts 54°
2026-05-06 16:54 40.91085 9.00281 21092 ft 355 kts 54°
2026-05-06 16:54 40.92494 9.02947 20488 ft 352 kts 54°
2026-05-06 16:54 40.93890 9.05589 19917 ft 349 kts 55°
2026-05-06 16:55 40.95273 9.08207 19356 ft 346 kts 55°
2026-05-06 16:55 40.96641 9.10807 18814 ft 343 kts 55°
2026-05-06 16:55 40.97998 9.13389 18295 ft 340 kts 56°
2026-05-06 16:55 40.99346 9.15947 17726 ft 337 kts 55°
2026-05-06 16:56 41.00683 9.18475 17176 ft 334 kts 55°
2026-05-06 16:56 41.02006 9.20981 16647 ft 331 kts 55°
2026-05-06 16:56 41.03313 9.23464 16116 ft 327 kts 55°
2026-05-06 16:56 41.04608 9.25930 15579 ft 325 kts 55°
2026-05-06 16:57 41.05811 9.28435 15065 ft 320 kts 69°
2026-05-06 16:57 41.06224 9.31253 14609 ft 309 kts 97°
2026-05-06 16:57 41.05662 9.33923 14119 ft 297 kts 125°
2026-05-06 16:57 41.04335 9.35912 13587 ft 285 kts 148°
2026-05-06 16:58 41.02712 9.37410 12958 ft 284 kts 150°
2026-05-06 16:58 41.01064 9.38827 12402 ft 279 kts 159°
2026-05-06 16:58 40.99208 9.39346 11883 ft 266 kts 188°
2026-05-06 16:58 40.97484 9.38667 11327 ft 258 kts 214°
2026-05-06 16:59 40.96214 9.37048 10776 ft 254 kts 235°
2026-05-06 16:59 40.95203 9.35124 10223 ft 254 kts 235°
2026-05-06 16:59 40.94207 9.33220 10002 ft 250 kts 235°
2026-05-06 16:59 40.93217 9.31328 9882 ft 250 kts 235°
2026-05-06 17:00 40.92228 9.29441 9746 ft 249 kts 235°
2026-05-06 17:00 40.91241 9.27559 9600 ft 249 kts 235°
2026-05-06 17:00 40.90251 9.25679 9454 ft 249 kts 235°
2026-05-06 17:00 40.89263 9.23804 9327 ft 248 kts 234°
2026-05-06 17:01 40.88280 9.21941 9175 ft 247 kts 234°
2026-05-06 17:01 40.87299 9.20078 9039 ft 247 kts 235°
2026-05-06 17:01 40.86320 9.18217 8902 ft 246 kts 235°
2026-05-06 17:01 40.85345 9.16359 8757 ft 246 kts 235°
2026-05-06 17:02 40.84384 9.14532 8595 ft 238 kts 234°
2026-05-06 17:02 40.83449 9.12761 8440 ft 232 kts 234°
2026-05-06 17:02 40.82519 9.11008 8358 ft 233 kts 234°
2026-05-06 17:02 40.81588 9.09256 8227 ft 233 kts 234°
2026-05-06 17:03 40.80659 9.07506 8098 ft 233 kts 234°
2026-05-06 17:03 40.79734 9.05763 7963 ft 232 kts 234°
2026-05-06 17:03 40.78808 9.04024 7855 ft 231 kts 234°
2026-05-06 17:03 40.77882 9.02282 7737 ft 231 kts 234°
2026-05-06 17:04 40.76962 9.00548 7604 ft 231 kts 234°
2026-05-06 17:04 40.76022 8.98834 7466 ft 230 kts 228°
2026-05-06 17:04 40.74693 8.97715 7331 ft 231 kts 195°
2026-05-06 17:04 40.73094 8.97776 7185 ft 237 kts 163°
2026-05-06 17:05 40.71678 8.98941 7034 ft 243 kts 147°
2026-05-06 17:05 40.70312 9.00255 6882 ft 243 kts 148°
2026-05-06 17:05 40.69378 9.01123 6776 ft 242 kts 149°
2026-05-06 17:05 40.67996 9.02391 6628 ft 242 kts 149°
2026-05-06 17:06 40.66742 9.03863 6473 ft 245 kts 126°
2026-05-06 17:06 40.66260 9.05981 6312 ft 246 kts 89°
2026-05-06 17:06 40.66785 9.08082 6161 ft 242 kts 57°
2026-05-06 17:06 40.67714 9.09890 6044 ft 237 kts 56°
2026-05-06 17:07 40.68665 9.11718 5954 ft 246 kts 56°
2026-05-06 17:07 40.69633 9.13579 5736 ft 245 kts 56°
2026-05-06 17:07 40.70593 9.15428 5583 ft 244 kts 56°
2026-05-06 17:07 40.71549 9.17277 5440 ft 244 kts 56°
2026-05-06 17:08 40.72498 9.19121 5309 ft 243 kts 56°
2026-05-06 17:08 40.73445 9.20959 5165 ft 242 kts 56°
2026-05-06 17:08 40.74392 9.22792 5018 ft 241 kts 56°
2026-05-06 17:08 40.75350 9.24600 4838 ft 240 kts 55°
2026-05-06 17:09 40.76328 9.26374 4600 ft 239 kts 54°
2026-05-06 17:09 40.77308 9.28138 4379 ft 238 kts 54°
2026-05-06 17:09 40.78283 9.29887 4158 ft 236 kts 54°
2026-05-06 17:09 40.79251 9.31625 3941 ft 234 kts 54°
2026-05-06 17:10 40.80212 9.33360 3709 ft 235 kts 54°
2026-05-06 17:10 40.81166 9.35137 3329 ft 239 kts 56°
2026-05-06 17:10 40.82122 9.36952 2924 ft 240 kts 55°
2026-05-06 17:10 40.83065 9.38754 2547 ft 236 kts 56°
2026-05-06 17:11 40.83986 9.40515 2190 ft 229 kts 56°
2026-05-06 17:11 40.84861 9.42187 1839 ft 213 kts 56°
2026-05-06 17:11 40.85670 9.43738 1696 ft 193 kts 56°
2026-05-06 17:11 40.86404 9.45142 1386 ft 182 kts 56°
2026-05-06 17:12 40.87107 9.46485 1045 ft 170 kts 55°
2026-05-06 17:12 40.87757 9.47724 736 ft 155 kts 54°
2026-05-06 17:12 40.88296 9.48752 507 ft 146 kts 53°
2026-05-06 17:12 40.88869 9.49861 253 ft 143 kts 53°
2026-05-06 17:13 40.89427 9.50927 50 ft 139 kts 52°
2026-05-06 17:13 40.89952 9.51925 221 ft 137 kts 52°
2026-05-06 17:13 40.90499 9.52974 987 ft 139 kts 55°
2026-05-06 17:13 40.91083 9.54053 1687 ft 151 kts 55°
2026-05-06 17:14 40.91758 9.55213 2049 ft 171 kts 53°
2026-05-06 17:14 40.92537 9.56537 2373 ft 194 kts 53°
2026-05-06 17:14 40.93406 9.58030 2655 ft 216 kts 53°
2026-05-06 17:14 40.94358 9.59675 3195 ft 229 kts 53°
2026-05-06 17:15 40.95332 9.61369 3795 ft 235 kts 53°
2026-05-06 17:15 40.96316 9.63092 3961 ft 235 kts 53°
2026-05-06 17:15 40.97299 9.64822 4001 ft 235 kts 53°
2026-05-06 17:15 40.98157 9.66647 4002 ft 233 kts 71°
2026-05-06 17:16 40.98372 9.68737 4010 ft 229 kts 99°
2026-05-06 17:16 40.97850 9.70696 4008 ft 225 kts 127°
2026-05-06 17:16 40.96748 9.72111 4007 ft 220 kts 151°
2026-05-06 17:16 40.95431 9.73161 4010 ft 221 kts 152°
2026-05-06 17:17 40.94112 9.74212 4007 ft 222 kts 152°
2026-05-06 17:17 40.92789 9.75266 4007 ft 222 kts 152°
2026-05-06 17:17 40.91464 9.76322 4008 ft 222 kts 151°
2026-05-06 17:17 40.90139 9.77379 4009 ft 222 kts 151°
2026-05-06 17:18 40.88817 9.78434 4008 ft 222 kts 152°
2026-05-06 17:18 40.87495 9.79489 4007 ft 222 kts 152°
2026-05-06 17:18 40.86182 9.80562 4008 ft 222 kts 146°
2026-05-06 17:18 40.85089 9.82021 4008 ft 226 kts 127°
2026-05-06 17:19 40.84407 9.83890 4008 ft 230 kts 108°
2026-05-06 17:19 40.84098 9.85969 4007 ft 230 kts 102°
2026-05-06 17:19 40.83814 9.88046 4010 ft 231 kts 102°
2026-05-06 17:19 40.83525 9.90131 4007 ft 230 kts 103°
2026-05-06 17:20 40.83229 9.92211 4007 ft 230 kts 103°
2026-05-06 17:20 40.82908 9.94279 4011 ft 230 kts 104°
2026-05-06 17:20 40.82580 9.96349 4011 ft 230 kts 104°
2026-05-06 17:20 40.82250 9.98415 4008 ft 229 kts 104°
2026-05-06 17:21 40.81920 10.00472 4009 ft 229 kts 104°
2026-05-06 17:21 40.81523 10.02503 4006 ft 227 kts 119°
2026-05-06 17:21 40.80533 10.04076 4007 ft 219 kts 150°
2026-05-06 17:21 40.79132 10.04616 4008 ft 213 kts 185°
2026-05-06 17:22 40.77743 10.03965 4012 ft 212 kts 217°
2026-05-06 17:22 40.76647 10.02655 4006 ft 214 kts 233°
2026-05-06 17:22 40.76085 10.00855 4010 ft 216 kts 262°
2026-05-06 17:22 40.76294 9.98896 4010 ft 221 kts 293°
2026-05-06 17:23 40.77261 9.97317 4014 ft 227 kts 320°
2026-05-06 17:23 40.78522 9.96046 4013 ft 229 kts 320°
2026-05-06 17:23 40.79790 9.94775 4012 ft 229 kts 320°
2026-05-06 17:23 40.81057 9.93500 4011 ft 229 kts 320°
2026-05-06 17:24 40.82291 9.92179 4008 ft 226 kts 310°
2026-05-06 17:24 40.83096 9.90440 4009 ft 221 kts 285°
2026-05-06 17:24 40.83296 9.88455 4013 ft 218 kts 264°
2026-05-06 17:24 40.83213 9.86457 4011 ft 218 kts 265°
2026-05-06 17:25 40.83132 9.84458 4009 ft 218 kts 265°
2026-05-06 17:25 40.83003 9.82468 4011 ft 217 kts 256°
2026-05-06 17:25 40.82530 9.80583 4011 ft 216 kts 247°
2026-05-06 17:25 40.81984 9.78727 4009 ft 217 kts 247°
2026-05-06 17:26 40.81442 9.76866 4009 ft 217 kts 248°
2026-05-06 17:26 40.80899 9.75007 4008 ft 218 kts 248°
2026-05-06 17:26 40.80352 9.73140 4011 ft 218 kts 248°
2026-05-06 17:26 40.79806 9.71276 4009 ft 218 kts 248°
2026-05-06 17:27 40.79261 9.69414 4009 ft 218 kts 248°
2026-05-06 17:27 40.78714 9.67549 4008 ft 218 kts 248°
2026-05-06 17:27 40.78169 9.65688 4009 ft 217 kts 248°
2026-05-06 17:27 40.77621 9.63830 4010 ft 217 kts 247°
2026-05-06 17:28 40.77074 9.61971 4007 ft 217 kts 247°
2026-05-06 17:28 40.76527 9.60114 4006 ft 217 kts 248°
2026-05-06 17:28 40.75977 9.58252 4007 ft 217 kts 248°
2026-05-06 17:28 40.75430 9.56394 4007 ft 218 kts 248°
2026-05-06 17:29 40.74882 9.54534 4011 ft 218 kts 248°
2026-05-06 17:29 40.74333 9.52673 4009 ft 218 kts 248°
2026-05-06 17:29 40.73783 9.50806 4011 ft 218 kts 247°
2026-05-06 17:29 40.73233 9.48940 4012 ft 218 kts 248°
2026-05-06 17:30 40.72684 9.47074 4008 ft 218 kts 247°
2026-05-06 17:30 40.72138 9.45202 4008 ft 218 kts 248°
2026-05-06 17:30 40.71592 9.43336 4010 ft 218 kts 248°
2026-05-06 17:30 40.71047 9.41478 4008 ft 217 kts 248°
2026-05-06 17:31 40.70632 9.39565 4004 ft 218 kts 267°
2026-05-06 17:31 40.70943 9.37613 4010 ft 223 kts 296°
2026-05-06 17:31 40.71969 9.36084 4013 ft 227 kts 327°
2026-05-06 17:31 40.73442 9.35314 4015 ft 229 kts 341°
2026-05-06 17:32 40.74969 9.34700 4009 ft 229 kts 341°
2026-05-06 17:32 40.76498 9.34087 3995 ft 231 kts 341°
2026-05-06 17:32 40.78037 9.33471 3890 ft 229 kts 342°
2026-05-06 17:32 40.79605 9.33309 3803 ft 228 kts 17°
2026-05-06 17:33 40.80921 9.34485 3818 ft 230 kts 49°
2026-05-06 17:33 40.81894 9.36129 3721 ft 235 kts 55°
2026-05-06 17:33 40.82821 9.37928 3321 ft 232 kts 57°
2026-05-06 17:33 40.83685 9.39711 2804 ft 229 kts 60°
2026-05-06 17:34 40.84519 9.41497 2473 ft 224 kts 58°
2026-05-06 17:34 40.85361 9.43119 2076 ft 204 kts 56°
2026-05-06 17:34 40.86140 9.44601 1710 ft 187 kts 57°
2026-05-06 17:34 40.86849 9.45998 1247 ft 176 kts 55°
2026-05-06 17:35 40.87513 9.47274 845 ft 164 kts 54°
2026-05-06 17:35 40.88136 9.48469 573 ft 152 kts 53°
2026-05-06 17:35 40.88723 9.49595 301 ft 150 kts 54°
2026-05-06 17:36 40.89874 9.51771 38 ft 105 kts 57°
2026-05-06 17:36 40.90139 9.52280 35 ft 49 kts 55°
2026-05-06 17:36 40.90310 9.52607 34 ft 29 kts 56°
2026-05-06 17:36 40.90437 9.52664 34 ft 17 kts 323°
2026-05-06 17:37 40.90454 9.52532 35 ft 11 kts 271°
2026-05-06 17:37 40.90429 9.52444 35 ft 10 kts 236°
2026-05-06 17:37 40.90385 9.52360 36 ft 14 kts 235°
2026-05-06 17:37 40.90329 9.52255 36 ft 14 kts 235°
2026-05-06 17:38 40.90271 9.52143 37 ft 16 kts 236°
2026-05-06 17:38 40.90207 9.52020 37 ft 17 kts 236°
2026-05-06 17:38 40.90179 9.51912 38 ft 10 kts 272°
2026-05-06 17:38 40.90184 9.51869 38 ft 6 kts 280°
2026-05-06 17:39 40.90205 9.51821 38 ft 6 kts 319°
2026-05-06 17:39 40.90228 9.51786 38 ft 4 kts 287°
2026-05-06 17:39 40.90215 9.51741 37 ft 5 kts 234°
2026-05-06 17:39 40.90199 9.51706 39 ft 4 kts 253°
2026-05-06 17:40 40.90214 9.51687 39 ft 2 kts 327°
2026-05-06 17:40 40.90232 9.51668 39 ft 4 kts 322°
2026-05-06 17:40 40.90245 9.51655 39 ft 0 kts 322°